Retour au catalogue

STARLINK-5305

ActifCommunicationsVLEO
NORAD 55314·PAYLOAD·🇺🇸 United States

Lancé Jan 19, 2023 depuis Vandenberg Space Force Base

Loading…

Prochains Passages (prochaines 24 heures)

TLE

FraisSource: CelesTrak SupGP

Époque: Sep 14, 2026, 21:26 UTC

1 55314C 23010AX  26257.89354167  .00756270  00000+0  55972-1 0  2571
2 55314  69.9999 247.4307 0003010 268.7777  47.0197 15.02698451    16

Suivez STARLINK-5305 en temps réel avec AllMySat

Download on the App Store